Location: Churchill Northern Studies Centre
(58.7378°N, 93.8201°W)
Time: 00:08:45
(UTC-05:00)

Envisat - Pass Details

Date: 15 October 2017
Orbit: 764 x 766 km, 98.2° (Epoch: 19 October)

Event Time Altitude Azimuth Distance (km) Brightness Sun altitude
Exits shadow 20:23:15 18° 153° (SSE) 1,791 4.5 -18.2°
Maximum altitude 20:27:00 77° 70° (ENE) 792 2.9 -18.7°
Drops below altitude 10° 20:32:07 10° 345° (NNW) 2,317 5.9 -19.3°
Sets 20:34:26 0° 344° (NNW) 3,248 6.7 -19.6°
